Regional Weather Roundup
Issued by NWS

Home | Current Version | Previous Version | Graphics & Text | Print | Product List | Glossary Off
Versions: 1 2 3 4 5 6 7 8 9 10 11 12 13 14 15 16 17 18 19 20 21 22 23 24 25 26 27 28 29 30 31 32 33 34 35 36 37 38 39 40 41 42 43 44 45 46 47 48 49 50

000
ASUS43 KLSX 220707
RWRMO

WEATHER SUMMARY FOR MISSOURI
NATIONAL WEATHER SERVICE SPRINGFIELD MO
100 AM CST SAT NOV 22 2014

NOTE: "FAIR" INDICATES FEW OR NO CLOUDS BELOW 12,000 FEET WITH NO
       SIGNIFICANT WEATHER AND/OR OBSTRUCTIONS TO VISIBILITY.
       CURRENT SKY AND/OR WEATHER CONDITIONS ARE NOT AVAILABLE FOR
       CHILLICOTHE AND FARMINGTON.

MOZ001>031-035>038-043-044-053-054-220800-
...NORTHERN AND WESTERN MISSOURI...

CITY           SKY/WX    TMP DP  RH WIND       PRES   REMARKS
KANSAS CTY INT CLOUDY    51  49  92 S16       30.01F
KANSAS C DTWN  CLOUDY    51  48  89 S7        30.03F
LEE`S SUMMIT   CLOUDY    48  46  93 S12       30.05S FOG
ST JOSEPH      CLOUDY    41  37  86 CALM      30.02S
CHILLICOTHE      N/A     45  39  79 S7        30.06F
KIRKSVILLE     CLOUDY    43  37  79 S9        30.07F

$$
MOZ066>068-077>081-088>096-101>105-220800-
...SOUTHWEST MISSOURI...

CITY           SKY/WX    TMP DP  RH WIND       PRES   REMARKS
SPRINGFIELD    CLOUDY    47  43  86 S17       30.12F
JOPLIN         CLOUDY    56  51  84 S17       30.09F

$$
MOZ032>034-039>042-045>050-055>058-069>072-220800-
...CENTRAL MISSOURI...

CITY           SKY/WX    TMP DP  RH WIND       PRES   REMARKS
COLUMBIA       CLOUDY    47  42  83 S13       30.11F
JEFFERSON CITY CLOUDY    48  42  80 S10       30.14F
ROLLA          CLOUDY    43  40  89 S13G22    30.13F
SEDALIA        CLOUDY    50  46  86 S13       30.09F
WARRENSBURG    CLOUDY    46  45  93 S10G17    30.07F
OSAGE BEACH    CLOUDY    48  43  81 S8        30.13F

$$
MOZ051-052-059>065-220800-
...EAST CENTRAL MISSOURI...

CITY           SKY/WX    TMP DP  RH WIND       PRES   REMARKS
ST LOUIS INTL  CLOUDY    43  37  79 S8        30.19F
SPIRIT OF STL  CLOUDY    43  39  86 CALM      30.17F
ST CHARLES     CLOUDY    40  37  89 SE8       30.18F

$$
MOZ072>076-082>087-097>100-106>115-220800-
...SOUTH CENTRAL AND SOUTHEAST MISSOURI...

CITY           SKY/WX    TMP DP  RH WIND       PRES   REMARKS
CAPE GIRARDEAU CLOUDY    45  34  65 SE9       30.25F
FARMINGTON     CLEAR     39  36  87 SE13      30.21F
POPLAR BLUFF   MOCLDY    40  37  89 CALM      30.24F FOG
WEST PLAINS    CLOUDY    43  39  86 S8        30.20F

$$


USA.gov is the U.S. government's official web portal to all federal, state and local government web resources and services.